CW9849 Weather Reports


Display with metric or nautical units.
time (UTC)temp
F
wind
direction
speed
MPH
gust
MPH
rain 1hr
in
rain 24hr
in
rain mn
in
humidity
%
barometer
mb
20260507151547 63 120 5.0 8.0 0.00 0.00 0.00 64 1015.0
20260507150048 63 107 3.0 7.0 0.00 0.00 0.00 61 1015.1
20260507144550 63 152 2.0 6.0 0.00 0.00 0.00 63 1015.1
20260507143056 62 127 4.0 8.0 0.00 0.00 0.00 61 1015.3
20260507141553 61 113 3.0 6.0 0.00 0.00 0.00 64 1015.4
20260507140043 62 135 3.0 8.0 0.00 0.00 0.00 61 1015.4
20260507134544 63 132 4.0 8.0 0.00 0.00 0.00 60 1015.3
20260507133106 63 144 4.0 9.0 0.00 0.00 0.00 63 1015.4
20260507131543 62 115 3.0 9.0 0.00 0.00 0.00 63 1015.4
20260507130043 61 139 5.0 9.0 0.00 0.00 0.00 63 1015.5
20260507124535 61 158 4.0 8.0 0.00 0.00 0.00 62 1015.5
20260507123040 62 84 3.0 8.0 0.00 0.00 0.00 61 1015.5
20260507121534 62 151 4.0 10.0 0.00 0.00 0.00 61 1015.6
20260507120035 63 152 6.0 10.0 0.00 0.00 0.00 61 1015.7
20260507114532 62 155 5.0 10.0 0.00 0.00 0.00 62 1015.7
20260507113033 62 151 6.0 11.0 0.00 0.00 0.00 63 1015.7
20260507111525 61 141 5.0 11.0 0.00 0.00 0.00 66 1015.7
20260507110031 60 136 6.0 11.0 0.00 0.00 0.00 66 1015.8
20260507104523 61 138 6.0 11.0 0.00 0.00 0.00 68 1015.8
20260507103019 59 149 5.0 11.0 0.00 0.00 0.00 71 1015.8
20260507101522 59 160 5.0 11.0 0.00 0.00 0.00 70 1015.7
20260507100020 58 151 5.0 10.0 0.00 0.00 0.00 71 1015.6
20260507094511 59 166 6.0 12.0 0.00 0.00 0.00 71 1015.7
20260507093006 58 164 7.0 10.0 0.00 0.00 0.00 72 1015.5
20260507091503 57 165 5.0 11.0 0.00 0.00 0.00 72 1015.6
20260507090106 57 154 7.0 11.0 0.00 0.00 0.00 72 1015.5
20260507084600 56 170 5.0 10.0 0.00 0.00 0.00 73 1015.5
20260507083053 55 163 6.0 12.0 0.00 0.00 0.00 73 1015.5
20260507081550 55 144 5.0 9.0 0.00 0.00 0.00 74 1015.6
20260507080046 54 148 5.0 9.0 0.00 0.00 0.00 75 1015.6
20260507074548 54 136 5.0 8.0 0.00 0.00 0.00 76 1015.6
20260507073045 53 157 5.0 9.0 0.00 0.00 0.00 76 1015.5
20260507071538 53 152 5.0 8.0 0.00 0.00 0.00 77 1015.5
20260507070042 52 146 5.0 10.0 0.00 0.00 0.00 77 1015.3
20260507064529 51 146 4.0 8.0 0.00 0.00 0.00 78 1015.2
20260507063024 51 159 4.0 8.0 0.00 0.00 0.00 79 1015.3
20260507061523 50 135 4.0 8.0 0.00 0.00 0.00 80 1015.2
20260507060020 49 150 3.0 6.0 0.00 0.00 0.00 81 1015.1
20260507054514 49 152 2.0 4.0 0.00 0.00 0.00 81 1015.0
20260507053012 49 143 2.0 5.0 0.00 0.00 0.00 81 1015.0
20260507051513 49 159 2.0 4.0 0.00 0.00 0.00 81 1014.9
20260507050019 49 152 2.0 4.0 0.00 0.00 0.00 81 1015.0
20260507044507 49 162 2.0 4.0 0.00 0.00 0.00 81 1015.0
20260507043006 49 89 1.0 3.0 0.00 0.00 0.00 81 1014.9
20260507041505 49 147 1.0 3.0 0.00 0.00 0.00 81 1014.9
20260507040005 49 108 1.0 3.0 0.00 0.00 0.00 81 1015.0
20260507034502 49 83 2.0 3.0 0.00 0.00 0.00 81 1014.9
20260507033002 48 117 1.0 3.0 0.00 0.00 0.00 81 1014.9
20260507031604 48 89 1.0 3.0 0.00 0.00 0.00 80 1015.1
20260507030110 48 117 1.0 3.0 0.00 0.00 0.00 80 1015.1
20260507024613 48 145 1.0 3.0 0.00 0.00 0.00 79 1015.1
20260507023056 47 140 1.0 3.0 0.00 0.00 0.00 79 1015.0
20260507021558 47 124 1.0 2.0 0.00 0.00 0.00 78 1015.0
20260507020100 47 117 1.0 3.0 0.00 0.00 0.00 78 1015.1
20260507014558 47 147 1.0 3.0 0.00 0.00 0.00 77 1015.3
20260507013059 47 161 1.0 3.0 0.00 0.00 0.00 76 1015.4
20260507011554 47 171 1.0 2.0 0.00 0.00 0.00 76 1015.3
20260507010048 47 152 1.0 2.0 0.00 0.00 0.00 75 1015.3
20260507004547 48 117 0.0 2.0 0.00 0.00 0.00 75 1015.2
20260507003042 48 46 1.0 2.0 0.00 0.00 0.00 75 1015.4
20260507001542 48 344 1.0 2.0 0.00 0.00 0.00 75 1015.6
20260507000041 48 331 1.0 2.0 0.00 0.00 0.00 75 1015.6
20260506234551 49 23 1.0 2.0 0.00 0.00 0.00 75 1015.7
20260506233047 49 1 2.0 3.0 0.00 0.00 0.00 74 1015.7
20260506231537 49 344 1.0 3.0 0.00 0.00 0.00 74 1015.7
20260506230036 49 9 1.0 3.0 0.00 0.00 0.00 74 1015.7
20260506224535 50 344 1.0 3.0 0.00 0.00 0.00 74 1015.9
20260506223033 50 331 2.0 3.0 0.00 0.00 0.00 74 1015.8
20260506221532 50 314 1.0 3.0 0.00 0.00 0.00 74 1015.9
20260506220032 50 317 2.0 3.0 0.00 0.00 0.00 74 1015.9
20260506214531 50 322 2.0 3.0 0.00 0.00 0.00 74 1015.9
20260506213029 50 322 2.0 4.0 0.00 0.00 0.00 74 1015.9
20260506211529 49 303 2.0 5.0 0.00 0.00 0.00 74 1015.8
20260506210033 50 296 3.0 5.0 0.00 0.00 0.00 74 1015.7
20260506204528 50 328 3.0 5.0 0.00 0.00 0.00 74 1015.7
20260506203036 50 323 3.0 5.0 0.00 0.00 0.00 74 1015.7
20260506201528 50 322 3.0 5.0 0.00 0.00 0.00 73 1015.7
20260506200026 50 329 4.0 6.0 0.00 0.00 0.00 73 1015.7
20260506194525 50 340 4.0 5.0 0.00 0.00 0.00 73 1015.8
20260506193024 51 308 3.0 6.0 0.00 0.00 0.00 74 1015.8
20260506191524 51 317 3.0 6.0 0.00 0.00 0.00 74 1015.8
20260506190023 51 314 3.0 6.0 0.00 0.00 0.00 73 1015.8
20260506184522 52 317 4.0 6.0 0.00 0.00 0.00 73 1015.7
20260506183021 53 327 3.0 7.0 0.00 0.00 0.00 72 1015.7
20260506181520 53 330 3.0 7.0 0.00 0.00 0.00 71 1015.7
20260506180026 54 314 3.0 8.0 0.00 0.00 0.00 69 1015.6
20260506174521 55 9 4.0 7.0 0.00 0.00 0.00 69 1015.5
20260506173021 56 21 5.0 9.0 0.00 0.00 0.00 67 1015.3
20260506171517 56 1 4.0 9.0 0.00 0.00 0.00 68 1015.5
20260506170016 56 322 6.0 11.0 0.00 0.00 0.00 68 1015.5
20260506164515 56 307 6.0 10.0 0.00 0.00 0.00 68 1015.5
20260506163021 56 18 6.0 10.0 0.00 0.00 0.00 67 1015.4
20260506161514 57 346 5.0 11.0 0.00 0.00 0.00 66 1015.4
20260506160010 58 8 4.0 11.0 0.00 0.00 0.00 66 1015.3
20260506154508 58 46 7.0 13.0 0.00 0.00 0.00 66 1015.5
20260506153007 58 56 6.0 11.0 0.00 0.00 0.00 65 1015.4